This demonstration page uses our WeatherBlox Daily Observations layout. Learn more.

Left ArrowRight Arrow

Hourly Observations for April 8, 2020

Temp ( °F °C ) Dew Point ( °F °C ) Humidity (%) Winds ( mph kmh ) Pressure ( in mb ) Visibility ( mi km ) Precip ( " mm )
12:51 am 00:51 Cloudy 62 16.7 33 0.6 34 34 E 6 9 29.9 1013 10 16.0934 0 0
1:51 am 01:51 Cloudy 62 16.7 33 0.6 34 34 NE 6 9 29.88 1012 10 16.0934 0 0
2:51 am 02:51 Clear 56 13.3 33 0.6 42 42 NW 5 7 29.89 1012 10 16.0934 0 0
3:51 am 03:51 Clear 57 13.9 35 1.7 44 44 SSW 3 6 29.88 1012 10 16.0934 0 0
4:51 am 04:51 Clear 51 10.6 33 0.6 50 50 ENE 6 9 29.9 1013 10 16.0934 0 0
5:51 am 05:51 Clear 52 11.1 33 0.6 49 49 E 7 11 29.92 1013 10 16.0934 0 0
6:51 am 06:51 Sunny 58 14.4 35 1.7 42 42 ESE 8 13 29.96 1014 10 16.0934 0 0
7:51 am 07:51 Sunny 66 18.9 37 2.8 34 34 E 8 13 29.96 1015 10 16.0934 0 0
8:51 am 08:51 Sunny 70 21.1 38 3.3 31 31 ESE 8 13 29.94 1014 10 16.0934 0 0
9:51 am 09:51 Sunny 74 23.3 38 3.3 27 27 E 10 17 29.94 1014 10 16.0934 0 0
10:51 am 10:51 Sunny 77 25 35 1.7 22 22 SE 12 19 29.91 1013 10 16.0934 0 0
11:51 am 11:51 Mostly Sunny 80 26.7 34 1.1 19 19 S 18 30 29.89 1012 10 16.0934 0 0
12:51 pm 12:51 Mostly Sunny 82 27.8 32 0 16 16 SSE 23 37 29.87 1012 10 16.0934 0 0
1:51 pm 13:51 Sunny 82 27.8 33 0.6 17 17 S 16 26 29.83 1010 10 16.0934 0 0
2:51 pm 14:51 Mostly Sunny 82 27.8 34 1.1 18 18 SSE 17 28 29.82 1010 10 16.0934 0 0
3:51 pm 15:51 Mostly Cloudy 80 26.7 35 1.7 20 20 SE 13 20 29.8 1009 10 16.0934 0 0
4:51 pm 16:51 Mostly Sunny 80 26.7 34 1.1 19 19 S 13 20 29.78 1009 10 16.0934 0 0
5:51 pm 17:51 Mostly Sunny 80 26.7 33 0.6 18 18 S 21 33 29.79 1009 10 16.0934 0 0
6:51 pm 18:51 Mostly Clear 77 25 33 0.6 20 20 S 13 20 29.8 1009 10 16.0934 0 0
7:51 pm 19:51 Partly Cloudy 75 23.9 36 2.2 24 24 S 13 20 29.81 1010 10 16.0934 0 0
8:51 pm 20:51 Mostly Cloudy 70 21.1 39 3.9 32 32 WNW 13 20 29.86 1011 10 16.0934 0 0
9:08 pm 21:08 Partly Cloudy 70 21 39 4 33 33 WNW 16 26 29.85 1011 10 16.0934 0 0
9:51 pm 21:51 Mostly Clear 66 18.9 40 4.4 39 39 NW 20 31 29.88 1012 10 16.0934 0 0
10:51 pm 22:51 Clear 63 17.2 40 4.4 43 43 WNW 18 30 29.89 1012 10 16.0934 0 0
11:51 pm 23:51 Partly Cloudy 60 15.6 39 3.9 46 46 WNW 17 28 29.89 1012 10 16.0934 0 0

Powered by AerisWeather